Location: Unspecified
(48.7670°N, 0.0000°E)
Time: 22:55:17
(UTC+00:00)

Altair - All Passes

Search period start: 25 June 2019 00:00
Search period end: 05 July 2019 00:00
Orbit: 1501 x 1683 km, 47.2° (Epoch: 25 June)

Date Brightness Start Highest point End Pass type
(mag) Time Alt. Az. Time Alt. Az. Time Alt. Az.
25 Jun - 01:55:38 10° WNW 02:04:02 32° SW 02:12:34 10° SSE visible
25 Jun - 17:15:50 10° S 17:22:48 24° SE 17:29:56 10° E daylight
25 Jun - 19:16:49 10° SW 19:26:00 59° SSE 19:35:34 10° ENE daylight
25 Jun - 21:20:48 10° W 21:30:27 83° S 21:40:29 10° E visible
25 Jun - 23:25:26 10° W 23:35:09 69° SSW 23:45:09 10° ESE visible
26 Jun - 01:30:22 10° WNW 01:38:57 35° SW 01:47:41 10° SSE visible
26 Jun - 16:51:12 10° S 16:57:48 22° SE 17:04:31 10° E daylight
26 Jun - 18:51:47 10° SW 19:00:53 56° SSE 19:10:20 10° ENE daylight
26 Jun - 20:55:39 10° W 21:05:15 82° S 21:15:15 10° E visible
26 Jun - 23:00:16 10° W 23:09:58 71° SSW 23:19:58 10° ESE visible
27 Jun - 01:05:08 10° WNW 01:13:52 37° SW 01:22:46 10° SSE visible
27 Jun - 16:26:38 10° S 16:32:47 20° SE 16:39:04 10° E daylight
27 Jun - 18:26:46 10° SW 18:35:46 53° SSE 18:45:07 10° ENE daylight
27 Jun - 20:30:30 10° WSW 20:40:04 81° S 20:50:02 10° E visible
27 Jun - 22:35:06 10° W 22:44:47 73° SSW 22:54:48 10° ESE visible
28 Jun - 00:39:54 10° WNW 00:48:46 39° SW 00:57:49 10° SSE visible
28 Jun - 02:48:39 10° WSW 02:51:23 11° WSW 02:54:08 10° SW visible
28 Jun - 16:02:07 10° SSE 16:07:47 18° SE 16:13:33 10° E daylight
28 Jun - 18:01:47 10° SW 18:10:39 50° SSE 18:19:53 10° ENE daylight
28 Jun - 20:05:22 10° WSW 20:14:53 80° S 20:24:48 10° E daylight
28 Jun - 22:09:56 10° W 22:19:36 75° SSW 22:29:37 10° ESE visible
29 Jun - 00:14:42 10° WNW 00:23:40 42° SW 00:32:51 10° SSE visible
29 Jun - 02:22:26 10° W 02:26:23 13° WSW 02:30:22 10° SSW visible
29 Jun - 15:37:43 10° SSE 15:42:48 16° SE 15:47:58 10° E daylight
29 Jun - 17:36:48 10° SW 17:45:34 48° SE 17:54:39 10° ENE daylight
29 Jun - 19:40:14 10° WSW 19:49:42 79° S 19:59:35 10° E daylight
29 Jun - 21:44:47 10° W 21:54:25 77° SSW 22:04:25 10° ESE visible
29 Jun - 23:49:29 10° WNW 23:58:33 44° SW 00:07:51 10° SSE visible
30 Jun - 01:56:35 10° W 02:01:23 15° SW 02:06:13 10° SSW visible
30 Jun - 15:13:27 10° SSE 15:17:50 14° SE 15:22:16 10° E daylight
30 Jun - 17:11:51 10° SSW 17:20:29 45° SE 17:29:25 10° ENE daylight
30 Jun - 19:15:06 10° WSW 19:24:31 78° SSE 19:34:21 10° E daylight
30 Jun - 21:19:38 10° W 21:29:14 78° SSW 21:39:13 10° ESE visible
30 Jun - 23:24:18 10° WNW 23:33:27 47° SW 23:42:51 10° SE visible
01 Jul - 01:30:55 10° W 01:36:22 16° SW 01:41:53 10° SSW visible
01 Jul - 14:49:23 10° SE 14:52:51 13° ESE 14:56:22 10° E daylight
01 Jul - 16:46:56 10° SSW 16:55:24 42° SE 17:04:11 10° ENE daylight
01 Jul - 18:49:58 10° WSW 18:59:21 76° SSE 19:09:08 10° E daylight
01 Jul - 20:54:28 10° W 21:04:03 80° S 21:14:01 10° ESE visible
01 Jul - 22:59:07 10° WNW 23:08:19 49° SSW 23:17:49 10° SE visible
02 Jul - 01:05:22 10° W 01:11:21 18° SW 01:17:26 10° SSW visible
02 Jul - 14:25:49 10° SE 14:27:55 11° ESE 14:30:01 10° ESE daylight
02 Jul - 16:22:01 10° SSW 16:30:21 39° SE 16:38:56 10° ENE daylight
02 Jul - 18:24:52 10° WSW 18:34:11 74° SSE 18:43:55 10° E daylight
02 Jul - 20:29:19 10° W 20:38:52 81° S 20:48:48 10° ESE visible
02 Jul - 22:33:56 10° WNW 22:43:12 52° SSW 22:52:45 10° SE visible
03 Jul - 00:39:53 10° W 00:46:19 20° SW 00:52:54 10° S visible
03 Jul - 15:57:07 10° SSW 16:05:17 37° SE 16:13:41 10° ENE daylight
03 Jul - 17:59:46 10° WSW 18:09:02 72° SSE 18:18:42 10° E daylight
03 Jul - 20:04:10 10° W 20:13:41 81° S 20:23:35 10° ESE daylight
03 Jul - 22:08:46 10° WNW 22:18:04 54° SSW 22:27:41 10° SE visible
04 Jul - 00:14:28 10° W 00:21:17 22° SW 00:28:16 10° S visible
04 Jul - 15:32:15 10° SSW 15:40:15 34° SE 15:48:26 10° ENE daylight
04 Jul - 17:34:40 10° WSW 17:43:53 70° SSE 17:53:30 10° E daylight
04 Jul - 19:39:01 10° W 19:48:30 82° S 19:58:23 10° E daylight
04 Jul - 21:43:37 10° WNW 21:52:56 57° SSW 22:02:35 10° SE visible
